Stations météo

réclame
Mon MeteoGroup
Cap Corse, France (7785): Température de l'air & dewpoint: 12.01.2019 13:00:00 - 18.01.2019 13:00:00 (CET)Cap Corse, France (7785): Vitesse du vent & gusts: 12.01.2019 13:00:00 - 18.01.2019 13:00:00 (CET)Cap Corse, France (7785): Direction du vent: 12.01.2019 13:00:00 - 18.01.2019 13:00:00 (CET)Cap Corse, France (7785): reduced air pressure: 12.01.2019 13:00:00 - 18.01.2019 13:00:00 (CET)Cap Corse, France (7785): visibility: 12.01.2019 13:00:00 - 18.01.2019 13:00:00 (CET)Cap Corse, France (7785): Quantités de précipitations: 12.01.2019 13:00:00 - 18.01.2019 13:00:00 (CET)
Date & Time tt [°C] td [°C] ff [km/h] ff [knt] fx [km/h] fx [knt] dd ppp [hPa] vv [km] rr [mm]
18.01.2019 13:00:00 - - - - - - - - - -
18.01.2019 12:00:00 11,5 2,2 48 26 80 43 W 1010,9 - 0,0
18.01.2019 11:00:00 10,6 2,2 50 27 92 50 W 1011,3 - 0,0
18.01.2019 10:00:00 10,9 0,6 54 29 97 53 W 1010,1 16 0,0
18.01.2019 09:00:00 10,5 1,6 60 32 96 52 WSW 1010,0 - 0,0
18.01.2019 08:00:00 10,3 2,4 63 34 86 47 W 1009,1 - 0,0
18.01.2019 07:00:00 11,0 3,8 69 38 100 54 W 1008,3 15 0,0
18.01.2019 06:00:00 11,5 3,0 71 39 101 55 WSW 1008,0 - 0,0
18.01.2019 05:00:00 11,7 3,5 71 38 116 62 W 1008,3 - 0,0
18.01.2019 04:00:00 12,0 4,2 61 33 111 60 WSW 1008,3 15 0,0
18.01.2019 03:00:00 12,1 4,1 64 34 114 62 WSW 1009,2 - 0,0
18.01.2019 02:00:00 12,2 6,5 49 26 106 57 WSW 1010,0 - 0,0
18.01.2019 01:00:00 12,3 5,9 51 27 95 52 WSW 1010,3 - 0,0
18.01.2019 00:00:00 12,3 5,7 50 27 102 55 WSW 1011,3 - 0,0
17.01.2019 23:00:00 12,3 6,1 46 25 100 54 WSW 1011,6 - 0,0
17.01.2019 22:00:00 12,3 6,3 46 25 111 60 W 1011,5 - 0,0
17.01.2019 21:00:00 12,5 5,6 47 26 93 50 WSW 1011,7 - 0,0
17.01.2019 20:00:00 12,2 6,0 45 25 89 48 WSW 1011,9 - 0,0
17.01.2019 19:00:00 12,3 6,3 46 25 81 44 WSW 1011,9 15 0,0
17.01.2019 18:00:00 12,5 5,9 44 24 76 41 WSW 1012,1 - 0,0
17.01.2019 17:00:00 12,6 6,0 41 22 67 36 WSW 1012,2 - 0,0
17.01.2019 16:00:00 13,3 6,4 37 20 66 36 WSW 1012,9 15 0,0
17.01.2019 15:00:00 12,6 6,8 41 22 74 40 WSW 1013,1 - 0,0
17.01.2019 14:00:00 12,8 6,8 36 19 61 33 WSW 1013,5 - 0,0
17.01.2019 13:00:00 13,0 7,9 39 21 63 34 W 1014,3 15 0,0
17.01.2019 12:00:00 13,7 4,3 23 12 40 22 WSW 1015,5 - 0,0
17.01.2019 11:00:00 14,6 3,7 13 7 22 12 WSW 1016,3 - 0,0
17.01.2019 10:00:00 13,6 3,6 5 3 21 12 NW 1016,0 15 0,0
17.01.2019 09:00:00 11,8 2,5 19 10 30 16 SW 1016,0 - 0,0
17.01.2019 08:00:00 10,6 1,7 20 11 27 15 SSW 1015,9 - 0,0
17.01.2019 07:00:00 10,3 1,4 12 7 23 12 SW 1016,4 18 0,0
17.01.2019 06:00:00 10,8 1,9 3 1 24 13 NW 1016,5 - 0,0
17.01.2019 05:00:00 10,3 2,9 17 9 37 20 SW 1016,8 - 0,0
17.01.2019 04:00:00 10,5 1,3 15 8 29 16 S 1017,2 18 0,0
17.01.2019 03:00:00 10,0 2,8 19 10 29 16 SW 1018,2 - 0,0
17.01.2019 02:00:00 11,0 4,2 18 10 31 17 SSW 1018,6 - 0,0
17.01.2019 01:00:00 11,6 5,5 16 9 29 16 SW 1019,0 - 0,0
17.01.2019 00:00:00 10,9 5,8 18 10 35 19 SW 1019,7 - 0,0
16.01.2019 23:00:00 10,0 4,8 24 13 41 22 SW 1019,8 - 0,0
16.01.2019 22:00:00 10,4 2,0 11 6 30 16 SW 1019,9 - 0,0
16.01.2019 21:00:00 10,3 2,1 15 8 21 11 ESE 1019,6 - 0,0
16.01.2019 20:00:00 9,0 1,9 4 2 17 9 WSW 1019,8 - 0,0
16.01.2019 19:00:00 8,9 2,2 16 9 18 10 SE 1019,8 18 0,0
16.01.2019 18:00:00 8,8 2,6 10 5 13 7 ESE 1019,6 - 0,0
16.01.2019 17:00:00 10,4 2,2 4 2 8 4 N 1019,6 - 0,0
16.01.2019 16:00:00 11,7 5,3 4 2 16 9 SSE 1019,8 18 0,0
16.01.2019 15:00:00 14,0 5,9 12 6 21 11 WNW 1020,0 - 0,0
16.01.2019 14:00:00 14,4 6,0 8 5 27 15 WSW 1020,0 - 0,0
16.01.2019 13:00:00 13,9 6,5 13 7 26 14 SW 1020,7 18 0,0
16.01.2019 12:00:00 13,7 5,8 16 9 27 14 SW 1021,3 - 0,0
16.01.2019 11:00:00 14,0 6,1 9 5 20 11 ESE 1021,9 - 0,0
16.01.2019 10:00:00 12,2 4,4 16 9 21 12 ENE 1021,7 18 0,0
16.01.2019 09:00:00 11,4 2,4 8 4 19 11 E 1021,6 - 0,0
16.01.2019 08:00:00 9,5 1,4 11 6 13 7 E 1021,5 - 0,0
16.01.2019 07:00:00 8,9 0,3 0 0 8 4 N 1021,4 - 0,0
16.01.2019 06:00:00 9,2 0,4 6 3 8 5 E 1021,2 - 0,0
16.01.2019 05:00:00 8,8 0,5 2 1 9 5 WSW 1021,3 - 0,0
16.01.2019 04:00:00 9,8 1,2 4 2 7 4 ENE 1021,6 20 0,0
16.01.2019 03:00:00 8,8 0,2 4 2 16 9 ESE 1021,9 - 0,0
16.01.2019 02:00:00 9,0 1,4 11 6 27 15 WSW 1021,7 - 0,0
16.01.2019 01:00:00 9,9 2,3 20 11 31 17 ESE 1021,6 - 0,0
16.01.2019 00:00:00 9,6 4,4 13 7 20 11 E 1021,9 - 0,0
15.01.2019 23:00:00 10,1 5,3 9 5 18 10 ENE 1022,0 - 0,0
15.01.2019 22:00:00 9,8 5,2 7 4 11 6 E 1021,8 - 0,0
15.01.2019 21:00:00 9,8 5,4 8 4 10 6 E 1021,3 - 0,0
15.01.2019 20:00:00 9,6 5,9 9 5 13 7 ESE 1021,0 - 0,0
15.01.2019 19:00:00 9,7 5,7 4 2 11 6 W 1020,6 - 0,0
15.01.2019 18:00:00 10,1 5,7 9 5 27 14 SW 1020,2 - 0,0
15.01.2019 17:00:00 12,5 7,0 18 10 37 20 WSW 1019,6 - 0,0
15.01.2019 16:00:00 13,7 7,9 30 16 50 27 WSW 1019,1 20 0,0
15.01.2019 15:00:00 13,6 8,4 36 20 62 33 W 1018,5 - 0,0
15.01.2019 14:00:00 14,2 8,2 27 15 59 32 WSW 1018,8 - 0,0
15.01.2019 13:00:00 14,8 3,3 22 12 45 24 WSW 1018,6 20 0,0
15.01.2019 12:00:00 15,1 0,1 13 7 - - WSW 1018,7 - 0,0
15.01.2019 11:00:00 15,4 -0,8 6 3 30 16 SSW 1018,8 - 0,0
15.01.2019 10:00:00 14,1 -4,6 22 12 39 21 SSE 1018,1 - 0,0
15.01.2019 09:00:00 12,4 -1,9 27 15 45 24 SSE 1017,1 - 0,0
15.01.2019 08:00:00 11,9 -3,5 31 17 47 25 SSE 1016,2 - 0,0
15.01.2019 07:00:00 11,5 -0,3 32 17 46 25 SE 1015,5 12 0,0
15.01.2019 06:00:00 11,8 -1,0 20 11 41 22 E 1015,1 - 0,0
15.01.2019 05:00:00 13,3 -0,7 30 16 41 22 ENE 1014,6 - 0,0
15.01.2019 04:00:00 11,0 2,3 9 5 29 16 ENE 1014,7 10 0,0
15.01.2019 03:00:00 11,0 4,7 20 11 32 18 N 1014,4 - 0,0
15.01.2019 02:00:00 10,3 5,1 14 8 29 16 WNW 1013,9 - 0,0
15.01.2019 01:00:00 11,8 7,1 18 10 28 15 NW 1013,2 - 0,0
15.01.2019 00:00:00 12,6 5,3 21 11 31 17 W 1012,4 - 0,0
14.01.2019 23:00:00 11,1 4,3 18 10 27 14 W 1012,0 - 0,0
14.01.2019 22:00:00 13,0 5,9 24 13 38 20 W 1011,1 - 0,0
14.01.2019 21:00:00 13,2 4,6 27 15 39 21 W 1010,3 - 0,0
14.01.2019 20:00:00 13,0 5,4 24 13 38 20 WNW 1009,7 - 0,0
14.01.2019 19:00:00 13,1 5,0 24 13 41 22 W 1009,1 - 0,0
14.01.2019 18:00:00 13,6 6,2 34 18 45 25 W 1008,3 - 0,0
14.01.2019 17:00:00 13,8 6,2 33 18 46 25 W 1007,4 - 0,0
14.01.2019 16:00:00 15,2 7,0 34 18 51 27 W 1006,8 15 0,0
14.01.2019 15:00:00 15,7 4,7 27 15 45 24 WSW 1006,0 - 0,0
14.01.2019 14:00:00 15,5 8,0 31 17 38 20 W 1005,7 - 0,0
14.01.2019 13:00:00 15,6 6,3 29 16 37 20 W 1005,2 15 0,0
14.01.2019 12:00:00 14,7 8,6 31 17 61 33 W 1005,0 - 0,0
14.01.2019 11:00:00 14,1 9,3 44 24 58 31 W 1004,6 - 0,0
14.01.2019 10:00:00 13,2 8,5 29 16 84 46 WSW 1003,9 15 0,0
14.01.2019 09:00:00 12,7 7,6 46 25 105 57 WSW 1002,5 - 0,0
14.01.2019 08:00:00 13,2 7,4 66 36 120 65 SW 1000,4 - 0,0
14.01.2019 07:00:00 13,3 7,7 60 32 122 66 WSW 1001,2 12 0,0
14.01.2019 06:00:00 13,5 7,0 57 31 139 75 WSW 1000,1 - 0,0
14.01.2019 05:00:00 13,4 6,9 72 39 131 71 WSW 1000,6 - 0,0
14.01.2019 04:00:00 13,5 6,4 54 29 99 53 WSW 1002,1 10 0,0
14.01.2019 03:00:00 12,6 4,8 40 21 77 42 WSW 1004,4 - 0,0
14.01.2019 02:00:00 12,7 3,9 33 18 74 40 WSW 1004,7 - 0,0
14.01.2019 01:00:00 12,4 3,6 32 17 67 36 WSW 1005,4 - 0,0
14.01.2019 00:00:00 11,9 3,6 25 14 64 35 WSW 1007,4 - 0,0
13.01.2019 23:00:00 11,3 5,0 35 19 73 39 SW 1007,2 - 0,0
13.01.2019 22:00:00 11,1 5,2 31 17 59 32 WSW 1009,1 - 0,0
13.01.2019 21:00:00 11,4 5,9 35 19 75 40 WSW 1009,1 - 0,0
13.01.2019 20:00:00 11,8 5,9 38 21 66 36 WSW 1009,5 - 0,0
13.01.2019 19:00:00 11,6 6,1 26 14 47 26 WSW 1010,7 - 0,0
13.01.2019 18:00:00 9,7 3,9 14 7 36 19 SSW 1010,9 - 0,0
13.01.2019 17:00:00 11,0 4,4 15 8 35 19 SW 1011,3 - 0,0
13.01.2019 16:00:00 11,9 4,8 22 12 37 20 WSW 1011,6 15 0,0
13.01.2019 15:00:00 12,8 4,7 24 13 46 25 WSW 1011,4 - 0,0
13.01.2019 14:00:00 13,4 4,8 27 15 55 30 WSW 1011,7 - 0,0
13.01.2019 13:00:00 13,0 4,7 24 13 50 27 W 1011,9 15 0,0
13.01.2019 12:00:00 13,0 4,9 16 9 28 15 WSW 1013,0 - 0,0
13.01.2019 11:00:00 12,8 5,7 15 8 24 13 WSW 1013,9 - 0,0
13.01.2019 10:00:00 12,1 5,7 19 10 32 17 SSE 1013,2 - 0,0
13.01.2019 09:00:00 11,2 5,5 26 14 42 23 SE 1012,7 - 0,0
13.01.2019 08:00:00 10,3 5,1 26 14 45 25 SE 1012,0 - 0,0
13.01.2019 07:00:00 10,1 2,9 25 13 36 19 ESE 1012,0 15 0,0
13.01.2019 06:00:00 9,7 3,2 21 11 29 16 ESE 1012,5 - 0,0
13.01.2019 05:00:00 9,7 3,2 16 9 31 17 ESE 1012,3 - 0,0
13.01.2019 04:00:00 9,9 2,3 22 12 44 24 E 1012,7 12 0,0
13.01.2019 03:00:00 10,2 0,5 30 16 47 25 ESE 1013,4 - 0,0
13.01.2019 02:00:00 9,7 -0,5 26 14 37 20 E 1014,1 - 0,0
13.01.2019 01:00:00 9,6 0,2 10 5 24 13 NE 1015,3 - 0,0
13.01.2019 00:00:00 9,4 -3,2 14 8 26 14 WNW 1015,9 - 0,0
12.01.2019 23:00:00 10,1 -5,5 18 10 41 22 SW 1016,0 - 0,0
12.01.2019 22:00:00 11,3 -4,8 28 15 59 32 SW 1016,5 - 0,0
12.01.2019 21:00:00 10,1 1,7 31 17 68 37 SW 1017,5 - 0,0
12.01.2019 20:00:00 10,9 3,2 39 21 71 39 WSW 1018,4 - 0,0
12.01.2019 19:00:00 10,7 2,3 37 20 63 34 WSW 1018,7 - 0,0
12.01.2019 18:00:00 10,7 1,2 39 21 70 38 WSW 1018,4 - 0,0
12.01.2019 17:00:00 10,4 1,0 37 20 60 33 WSW 1018,3 - 0,0
12.01.2019 16:00:00 11,1 1,6 36 20 69 37 WSW 1018,9 15 0,0
12.01.2019 15:00:00 11,6 1,2 42 23 72 39 WSW 1018,9 - 0,0
12.01.2019 14:00:00 11,5 1,7 41 22 67 36 WSW 1019,1 - 0,0
12.01.2019 13:00:00 11,5 1,4 43 23 69 38 WSW 1019,4 15 0,0

tt = Température de l'air
td = dewpoint
ff = Vitesse du vent
fx = gusts
dd = Direction du vent
ppp = reduced air pressure
vv = visibility
rr = Quantités de précipitations

stations d'obs. à proximité